Regional Weather Roundup
Issued by NWS Huntsville, AL

Home | Current Version | Previous Version | Text Only | Print | Product List | Glossary On
Versions: 1 2 3 4 5 6 7 8 9 10 11 12 13 14 15 16 17 18 19 20 21 22 23 24 25 26 27
000
ASUS44 KHUN 192110
RWRHUN

WEATHER ROUNDUP FOR THE TENNESSEE VALLEY
NATIONAL WEATHER SERVICE HUNTSVILLE AL
300 PM CST THU JAN 19 2017

ALZ001>004-192200-
NORTHWEST ALABAMA

CITY           SKY/WX    TMP DP  RH WIND       PRES   REMARKS
COURTLAND HCN    N/A     63 N/A N/A SW7         N/A
RUSSELLVILLE     N/A     61 N/A N/A MISG        N/A
SHOALS AIRPORT RAIN      61  58  90 SE6       29.81F
SHOALS TVA RES   N/A     61 N/A N/A MISG        N/A
$$

ALZ005>007-016-192200-
NORTH CENTRAL ALABAMA

CITY           SKY/WX    TMP DP  RH WIND       PRES   REMARKS
CULLMAN AG STN   N/A     63 N/A N/A SE5         N/A
DECATUR AP     RAIN      62  62 100 S5        29.82F FOG
HUNTSVILLE AP  HVY RAIN  63  62  97 SE9       29.82F VSB 1
MERIDIANVILLE  HVY RAIN  59  57  94 SE8       29.84F
REDSTONE ARSN  LGT RAIN  61  59  94 S10       29.82F FOG
VINEMONT AP    HVY RAIN  62  61  97 S7        29.86F
$$

ALZ008>010-192200-
NORTHEAST ALABAMA

CITY           SKY/WX    TMP DP  RH WIND       PRES   REMARKS
ALBERTVILLE    LGT RAIN  59  59 100 CALM      29.85F
FORT PAYNE     CLOUDY    59  54  82 CALM      29.87F
SCOTTSBORO AP  LGT RAIN  57  57 100 CALM      29.87F
SCOTTSBORO HCN   N/A     57 N/A N/A MISG        N/A
VALLEY HEAD      N/A     61 N/A N/A MISG        N/A
$$

TNZ076-096-097-192200-
SOUTHEASTERN MIDDLE TENNESSEE

CITY           SKY/WX    TMP DP  RH WIND       PRES   REMARKS
TULLAHOMA      CLOUDY    57  57 100 SE6       29.85F
WINCHESTER     CLOUDY    57  55  94 SE10      29.86R
$$

...SURROUNDING SITES...

CITY           SKY/WX    TMP DP  RH WIND       PRES   REMARKS
ATLANTA        PTSUNNY   72  54  53 S10       29.92F
ANNISTON       CLOUDY    70  61  73 E3        29.87F
BIRMINGHAM     LGT RAIN  64  64 100 SE6       29.85F FOG
CHATTANOOGA    CLOUDY    59  44  57 N3        29.91F
CORINTH        DRIZZLE   63  61  94 S8        29.76R
DALTON         CLOUDY    66  50  55 SE9       29.90F
GADSDEN        LGT RAIN  59  56  89 NE5       29.87F
GOLDEN TRNGL   CLOUDY    63  59  88 SE9       29.73F FOG
HALEYVILLE     RAIN      61  60  97 E3        29.82F FOG
JACKSON TN     LGT RAIN  62  61  96 SW6       29.75S
MEMPHIS        LGT RAIN  63  62  97 S21       29.70S
NASHVILLE      LGT RAIN  58  56  93 S7        29.82F FOG
OXFORD MS      RAIN      61  59  94 CALM      29.77F
ROME           CLOUDY    66  53  63 CALM      29.88F
SAVANNAH       MOSUNNY   61  61 100 SE5       29.75F
TUPELO         LGT RAIN  63  61  93 E5        29.76F
TUSCALOOSA     LGT RAIN  66  65  96 S5        29.81F FOG
$$

...GULF COAST WEATHER...

CITY           SKY/WX    TMP DP  RH WIND       PRES   REMARKS
GULFPORT       CLOUDY    70  68  93 S10       29.81F
PASCAGOULA     CLOUDY    73  68  84 S10G18    29.82F
MOBILE         LGT RAIN  73  67  81 S14       29.83F
GULF SHORES    MOCLDY    72  71  97 S12       29.87F
PENSACOLA      CLOUDY    74  68  81 S12       29.86F
DESTIN         MOSUNNY   76  70  82 S8        29.90F
PANAMA CITY    MOSUNNY   75  67  75 S13       29.93F
APPALACHICOLA  CLOUDY    73  70  90 SE10      29.96F
$$





USA.gov is the U.S. government's official web portal to all federal, state and local government web resources and services.